Time,TemperatureF,DewpointF,PressureIn,WindDirection,WindDirectionDegrees,WindSpeedMPH,WindSpeedGustMPH,Humidity,HourlyPrecipIn,Conditions,Clouds,dailyrainin,SolarRadiationWatts/m^2,SoftwareType,DateUTC
2013-01-13 00:01:00,38.6,33.6,29.92,ESE,108,2.0,10.0,82,0.00,-RA,OVC,0.00,0.0,WeatherDisplay:10.37,2013-01-13 00:01:00,
2013-01-13 00:31:00,38.6,33.2,29.92,ENE,73,2.0,9.0,81,0.00,-RA,OVC,0.00,0.0,WeatherDisplay:10.37,2013-01-13 00:31:00,
2013-01-13 01:01:00,38.4,33.3,29.93,East,80,3.0,10.0,82,0.00,-RA,OVC,0.00,0.0,WeatherDisplay:10.37,2013-01-13 01:01:00,
2013-01-13 01:30:00,38.3,33.2,29.94,ENE,76,1.0,10.0,82,0.00,-RA,OVC,0.00,0.0,WeatherDisplay:10.37,2013-01-13 01:30:00,
2013-01-13 02:00:00,38.2,32.5,29.95,East,79,5.0,14.0,80,0.00,-RA,OVC,0.00,0.0,WeatherDisplay:10.37,2013-01-13 02:00:00,
2013-01-13 02:30:00,38.1,32.4,29.95,East,92,1.0,14.0,80,0.00,-RA,OVC,0.00,0.0,WeatherDisplay:10.37,2013-01-13 02:30:00,
2013-01-13 03:00:00,37.7,31.8,29.96,East,84,3.0,12.0,79,0.00,-RA,OVC,0.00,0.0,WeatherDisplay:10.37,2013-01-13 03:00:00,
2013-01-13 03:30:00,37.5,31.5,29.96,ENE,73,1.0,10.0,79,0.00,-RA,OVC,0.00,0.0,WeatherDisplay:10.37,2013-01-13 03:30:00,
2013-01-13 04:00:00,37.4,30.9,29.97,ENE,69,1.0,13.0,77,0.00,-RA,OVC,0.00,0.0,WeatherDisplay:10.37,2013-01-13 04:00:00,
2013-01-13 04:30:00,37.4,30.5,29.97,East,96,1.0,13.0,76,0.00,-RA,OVC,0.00,0.0,WeatherDisplay:10.37,2013-01-13 04:30:00,
2013-01-13 05:00:00,36.8,29.9,29.98,ENE,75,1.0,12.0,76,0.00,-RA,OVC,0.00,0.0,WeatherDisplay:10.37,2013-01-13 05:00:00,
2013-01-13 05:30:00,36.5,29.6,29.99,East,100,0.0,12.0,76,0.00,-RA,OVC,0.00,0.0,WeatherDisplay:10.37,2013-01-13 05:30:00,
2013-01-13 06:00:00,36.1,28.9,30.00,NE,55,2.0,12.0,75,0.00,-RA,OVC,0.00,0.0,WeatherDisplay:10.37,2013-01-13 06:00:00,
2013-01-13 06:30:00,36.2,28.7,30.01,ENE,72,1.0,12.0,74,0.00,-RA,OVC,0.00,0.0,WeatherDisplay:10.37,2013-01-13 06:30:00,
2013-01-13 07:00:00,36.3,28.5,30.02,ENE,61,2.0,8.0,73,0.00,-RA,OVC,0.00,0.0,WeatherDisplay:10.37,2013-01-13 07:00:00,
2013-01-13 07:30:00,36.0,28.1,30.03,NE,52,3.0,9.0,73,0.00,-RA,OVC,0.00,0.0,WeatherDisplay:10.37,2013-01-13 07:30:00,
2013-01-13 08:00:00,35.1,27.7,30.04,NE,46,2.0,10.0,74,0.00,-RA,OVC,0.00,0.0,WeatherDisplay:10.37,2013-01-13 08:00:00,
2013-01-13 08:30:00,34.3,27.2,30.04,NE,35,3.0,12.0,75,0.00,-RA,OVC,0.00,7.0,WeatherDisplay:10.37,2013-01-13 08:30:00,
2013-01-13 09:00:00,34.2,27.4,30.05,NE,34,3.0,13.0,76,0.00,-RA,OVC,0.00,19.0,WeatherDisplay:10.37,2013-01-13 09:00:00,
2013-01-13 09:30:00,33.7,27.2,30.06,NNE,32,1.0,12.0,77,0.00,-RA,OVC,0.00,39.0,WeatherDisplay:10.37,2013-01-13 09:30:00,
2013-01-13 10:00:00,34.4,27.9,30.07,NNE,17,3.0,10.0,77,0.00,-RA,OVC,0.00,72.0,WeatherDisplay:10.37,2013-01-13 10:00:00,
2013-01-13 10:30:00,34.9,28.4,30.07,NE,35,3.0,10.0,77,0.00,-RA,OVC,0.00,86.0,WeatherDisplay:10.37,2013-01-13 10:30:00,
2013-01-13 11:00:00,35.9,29.0,30.07,NNE,29,1.0,8.0,76,0.00,-RA,OVC,0.00,128.0,WeatherDisplay:10.37,2013-01-13 11:00:00,
2013-01-13 11:30:00,36.5,29.0,30.07,NE,34,2.0,12.0,74,0.00,-RA,OVC,0.00,183.0,WeatherDisplay:10.37,2013-01-13 11:30:00,
2013-01-13 12:00:00,36.9,29.1,30.07,NNE,16,6.0,12.0,73,0.00,-RA,OVC,0.00,104.0,WeatherDisplay:10.37,2013-01-13 12:00:00,
2013-01-13 12:30:00,37.0,29.4,30.07,NNE,29,2.0,12.0,74,0.00,-RA,OVC,0.00,116.0,WeatherDisplay:10.37,2013-01-13 12:30:00,
2013-01-13 13:00:00,36.9,29.7,30.07,NNE,28,5.0,12.0,75,0.00,-RA,OVC,0.00,141.0,WeatherDisplay:10.37,2013-01-13 13:00:00,
2013-01-13 13:30:00,37.0,29.8,30.06,NNE,19,1.0,10.0,75,0.00,-RA,OVC,0.00,137.0,WeatherDisplay:10.37,2013-01-13 13:30:00,
2013-01-13 14:00:00,37.4,30.2,30.07,NNE,15,3.0,9.0,75,0.00,-RA,OVC,0.00,114.0,WeatherDisplay:10.37,2013-01-13 14:00:00,
2013-01-13 14:30:00,37.7,29.8,30.06,NNE,17,3.0,12.0,73,0.00,-RA,OVC,0.00,151.0,WeatherDisplay:10.37,2013-01-13 14:30:00,
2013-01-13 15:00:00,36.8,29.6,30.08,NNE,27,5.0,13.0,75,0.00,-RA,OVC,0.00,35.0,WeatherDisplay:10.37,2013-01-13 15:00:00,
2013-01-13 15:30:00,36.0,29.8,30.08,NE,37,3.0,10.0,78,0.00,-RA,OVC,0.00,5.0,WeatherDisplay:10.37,2013-01-13 15:30:00,
2013-01-13 16:00:00,35.8,29.6,30.09,NNE,23,2.0,9.0,78,0.00,-RA,OVC,0.00,0.0,WeatherDisplay:10.37,2013-01-13 16:00:00,
2013-01-13 16:30:00,35.7,29.5,30.10,NE,43,0.0,10.0,78,0.00,-RA,OVC,0.00,0.0,WeatherDisplay:10.37,2013-01-13 16:30:00,
2013-01-13 17:00:00,35.6,29.1,30.10,NNE,12,1.0,7.0,77,0.00,-RA,OVC,0.00,0.0,WeatherDisplay:10.37,2013-01-13 17:00:00,
2013-01-13 17:30:00,35.5,29.3,30.10,North,1,1.0,7.0,78,0.00,-RA,OVC,0.00,0.0,WeatherDisplay:10.37,2013-01-13 17:30:00,
2013-01-13 18:00:00,35.3,28.8,30.09,North,360,1.0,7.0,77,0.00,-RA,OVC,0.00,0.0,WeatherDisplay:10.37,2013-01-13 18:00:00,
2013-01-13 18:30:00,35.1,28.9,30.10,North,355,0.0,10.0,78,0.00,-RA,OVC,0.00,0.0,WeatherDisplay:10.37,2013-01-13 18:30:00,
2013-01-13 19:00:00,34.7,28.5,30.10,NNE,24,0.0,5.0,78,0.00,-RA,OVC,0.00,0.0,WeatherDisplay:10.37,2013-01-13 19:00:00,
2013-01-13 19:30:00,34.8,28.6,30.10,North,355,1.0,6.0,78,0.00,-RA,OVC,0.00,0.0,WeatherDisplay:10.37,2013-01-13 19:30:00,
2013-01-13 20:00:00,34.7,27.6,30.09,North,355,0.0,5.0,75,0.00,-RA,OVC,0.00,0.0,WeatherDisplay:10.37,2013-01-13 20:00:00,
2013-01-13 20:30:00,34.8,27.6,30.09,NNE,22,2.0,6.0,75,0.00,-RA,OVC,0.00,0.0,WeatherDisplay:10.37,2013-01-13 20:30:00,
2013-01-13 21:00:00,34.5,27.4,30.09,NNE,17,2.0,6.0,75,0.00,-RA,OVC,0.00,0.0,WeatherDisplay:10.37,2013-01-13 21:00:00,
2013-01-13 21:30:00,34.3,27.2,30.09,NNE,25,1.0,5.0,75,0.00,-RA,OVC,0.00,0.0,WeatherDisplay:10.37,2013-01-13 21:30:00,
2013-01-13 22:00:00,33.9,26.5,30.08,North,3,0.0,3.0,74,0.00,-RA,OVC,0.00,0.0,WeatherDisplay:10.37,2013-01-13 22:00:00,
2013-01-13 22:30:00,33.9,26.8,30.08,North,3,0.0,3.0,75,0.00,-RA,OVC,0.00,0.0,WeatherDisplay:10.37,2013-01-13 22:30:00,
2013-01-13 23:00:00,33.9,27.4,30.08,North,4,0.0,3.0,77,0.00,-RA,OVC,0.00,0.0,WeatherDisplay:10.37,2013-01-13 23:00:00,
2013-01-13 23:30:00,33.7,27.6,30.07,North,4,0.0,4.0,78,0.00,-RA,OVC,0.00,0.0,WeatherDisplay:10.37,2013-01-13 23:30:00,